Oceanside, CA

3:48 PM PDT on September 26, 2017 (GMT -0700)
Oceanside Municipal

Weather History for KOKB - December, 2013

Change the Weather History Date:

Wednesday, December 4, 2013

  Actual Average Record
Temperature  
Mean Temperature 53 °F 54 °F  
Max Temperature 62 °F 66 °F 76 °F (2005)
Min Temperature 43 °F 41 °F 29 °F (2011)
Degree Days  
Heating Degree Days 12 12  
Month to date heating degree days 35 45  
Since 1 July heating degree days 334 395  
Cooling Degree Days 0 0  
Month to date cooling degree days 0 0  
Year to date cooling degree days 535 419  
Growing Degree Days 2 (Base 50)    
Moisture  
Dew Point 39 °F    
Average Humidity 54    
Maximum Humidity 76    
Minimum Humidity 32    
Precipitation  
Precipitation 0.00 in 0.04 in 0.33 in (2014)
Month to date precipitation 0.00 0.14  
Year to date precipitation 3.56 11.65  
Since 1 July precipitation 1.24  
Snow  
Snow 0.00 in - - ()
Month to date snowfall 0.0  
Year to date snowfall 0.0  
Snow Depth 0.00 in    
Sea Level Pressure  
Sea Level Pressure 29.90 in    
Wind  
Wind Speed 6 mph (WSW)    
Max Wind Speed 14 mph    
Max Gust Speed 20 mph    
Visibility 10 miles    
Events      
T = Trace of Precipitation, MM = Missing Value Source: NWS Daily Summary

Daily Weather History Graph

Daily Weather History Graph

Search for Another Location

Airport or City:

Trip Planner

Search our weather history database for the weather conditions in past years. The results will help you decide how hot, cold, wet, or windy it might be!

Date:

Astronomy

Dec. 04, 2013 Rise Set
Actual Time 6:37 AM PST 4:41 PM PST
Civil Twilight 6:10 AM PST 5:09 PM PST
Nautical Twilight 5:39 AM PST 5:39 PM PST
Astronomical Twilight 5:09 AM PST 6:09 PM PST
Moon 8:11 AM PST (12/4) 6:54 PM PST (12/4)
Length of Visible Light 10h 58m
Length of Day
10h 04m
Waxing Crescent, 5% of the Moon is Illuminated
Dec 4
Waxing Crescent
Dec 9
First Quarter
Dec 17
Full
Dec 25
Last Quarter
Jan 1
New

Hourly Weather History & Observations

Time (PST) Temp. Dew Point Humidity Pressure Visibility Wind Dir Wind Speed Gust Speed Precip Events Conditions
12:24 AM 60.8 °F 46.4 °F 59% 29.80 in 10.0 mi West 10.4 mph 19.6 mph N/A   Overcast
12:52 AM 59.0 °F 48.0 °F 67% 29.80 in 10.0 mi West 5.8 mph 18.4 mph N/A   Overcast
1:18 AM 59.0 °F 46.4 °F 63% 29.80 in 10.0 mi West 6.9 mph - N/A   Overcast
1:52 AM 57.9 °F 46.0 °F 65% 29.81 in 10.0 mi West 4.6 mph - N/A   Overcast
2:52 AM 57.0 °F 45.0 °F 64% 29.81 in 10.0 mi WSW 5.8 mph - N/A   Overcast
3:52 AM 57.0 °F 42.1 °F 57% 29.82 in 10.0 mi West 6.9 mph - N/A   Mostly Cloudy
4:52 AM 55.0 °F 39.0 °F 55% 29.83 in 10.0 mi WSW 9.2 mph - N/A   Scattered Clouds
5:52 AM 50.0 °F 37.9 °F 63% 29.85 in 10.0 mi Calm Calm - N/A   Mostly Cloudy
6:52 AM 45.0 °F 37.9 °F 76% 29.89 in 10.0 mi Calm Calm - N/A   Clear
7:52 AM 52.0 °F 42.1 °F 69% 29.91 in 9.0 mi Calm Calm - N/A   Mostly Cloudy
8:52 AM 59.0 °F 39.9 °F 49% 29.93 in 10.0 mi South 4.6 mph - N/A   Scattered Clouds
9:52 AM 60.1 °F 39.0 °F 46% 29.93 in 10.0 mi SE 5.8 mph - N/A   Clear
10:52 AM 61.0 °F 39.0 °F 44% 29.93 in 10.0 mi WSW 8.1 mph - N/A   Clear
11:52 AM 61.0 °F 41.0 °F 48% 29.91 in 10.0 mi West 6.9 mph - N/A   Clear
12:52 PM 62.1 °F 34.0 °F 35% 29.91 in 10.0 mi WSW 9.2 mph - N/A   Clear
1:52 PM 60.1 °F 30.0 °F 32% 29.91 in 10.0 mi West 6.9 mph - N/A   Clear
2:52 PM 59.0 °F 34.0 °F 39% 29.91 in 10.0 mi Variable 6.9 mph - N/A   Clear
3:52 PM 57.9 °F 37.9 °F 47% 29.91 in 10.0 mi West 4.6 mph - N/A   Clear
4:52 PM 55.0 °F 37.9 °F 53% 29.91 in 10.0 mi Calm Calm - N/A   Clear
5:52 PM 46.9 °F 37.0 °F 68% 29.94 in 10.0 mi Calm Calm - N/A   Clear
6:52 PM 44.1 °F 36.0 °F 73% 29.95 in 10.0 mi Calm Calm - N/A   Clear
7:52 PM 42.1 °F 36.0 °F 79% 29.96 in 10.0 mi Calm Calm - N/A   Clear
8:52 PM 44.1 °F 37.0 °F 76% 29.97 in 10.0 mi Calm Calm - N/A   Mostly Cloudy
9:52 PM 44.1 °F 37.0 °F 76% 29.97 in 10.0 mi Calm Calm - N/A   Mostly Cloudy
10:52 PM 42.1 °F 37.0 °F 82% 29.97 in 10.0 mi Calm Calm - N/A   Partly Cloudy
11:52 PM 42.1 °F 37.0 °F 82% 29.97 in 10.0 mi Calm Calm - N/A   Mostly Cloudy